Flag for Colombia Weather past 2 weeks in Pereira, Colombia

Now
82 °F

Scattered showers. Scattered clouds.


Feels Like: 84 °F
Forecast: N/A
Wind: 5 mph from Southwest

Location: Pereira / Matecana

Current Time: Jan 26, 2015 at 3:59:09 PM

Latest Report: Jan 26, 2015 at 3:00 PM


Visibility: N/A

Pressure: 30.03 "Hg

Humidity: 55%

Dew point: 64 °F

Location of PereiraLocation

Historic Weather in Pereira — Graph

°F

Pereira temperature yesterday

Maximum temperature yesterday: 81 °F (at 3:00 PM)
Minimum temperature yesterday: 66 °F (at 5:00 AM)
Average temperature yesterday: 73 °F

Past Weeks' High & Low Weather Summary

 TemperatureHumidityPressure
High84 °F (Jan 12, 1:00 PM)100% (Jan 19, 5:00 AM)30.17 "Hg (Jan 19, 5:00 AM)
Low50 °F (Jan 21, 8:00 AM)48% (Jan 12, 2:00 PM)29.90 "Hg (Jan 12, 4:00 PM)
Average72 °F77%30.04 "Hg
* Reported Jan 11 3:00 PM — Jan 26 3:00 PM, Pereira, Weather by CustomWeather, © 2014

Note: Actual official high and low records may vary slightly from our data, if they occured in-between our weather recording intervals... More about our weather records

Advertising

Pereira weather history for previous 24 hours

 ConditionsComfort  
Time TempWeatherWind HumidityBarometerVisibility
3:00 PM
Jan 26
82 °FScattered showers. Scattered clouds.5 mph55%30.03 "HgN/A
2:00 PM81 °FPassing clouds.9 mph58%29.96 "HgN/A
1:00 PM79 °FScattered clouds.5 mph58%29.99 "HgN/A
12:00 PM81 °FPassing clouds.8 mph58%30.01 "HgN/A
11:00 AM77 °FPassing clouds.2 mph65%30.04 "HgN/A
10:00 AM75 °FPassing clouds.8 mph69%30.05 "HgN/A
9:00 AM72 °FPassing clouds.2 mph73%30.06 "HgN/A
8:00 AM68 °FPassing clouds.3 mph78%30.04 "HgN/A
7:00 AM64 °FScattered clouds.9 mph83%30.01 "HgN/A
6:00 AM64 °FPassing clouds.10 mph83%29.99 "HgN/A
12:00 AM68 °FPassing clouds.8 mph83%29.99 "HgN/A
11:00 PM
Jan 25
70 °FPassing clouds.7 mph83%30.00 "HgN/A
10:00 PM70 °FPassing clouds.6 mph83%30.00 "HgN/A
9:00 PM70 °FPassing clouds.8 mph83%29.97 "HgN/A
8:00 PM73 °FPassing clouds.3 mph74%29.95 "HgN/A
7:00 PM75 °FPassing clouds.5 mph69%29.94 "HgN/A
6:00 PM77 °FPassing clouds.2 mph65%29.91 "HgN/A
5:00 PM79 °FPassing clouds.2 mph61%29.90 "HgN/A
4:00 PM81 °FPassing clouds.2 mph62%29.91 "HgN/A
3:00 PM81 °FScattered clouds.7 mph62%29.94 "HgN/A
Weather by CustomWeather, © 2014

See weather overviewHow to use our weather pages